Regional Weather Roundup
Issued by NWS

Home | Current Version | Previous Version | Graphics & Text | Print | Product List | Glossary On
Versions: 1 2 3 4 5 6 7 8 9 10 11 12 13 14 15 16 17 18 19 20 21 22 23 24 25 26 27 28 29 30 31 32 33 34 35 36 37 38 39 40 41 42 43 44 45 46 47 48 49 50
000
ASUS45 KSLC 101810
RWRUT

UTAH REGIONAL WEATHER ROUNDUP
NATIONAL WEATHER SERVICE SALT LAKE CITY UT
1100 AM MST WED FEB 10 2016

UTZ001>011-023>025-101900-

NORTHERN UTAH

CITY           SKY/WX    TMP DP  RH WIND       PRES   REMARKS
BRIGHAM CITY   CLOUDY    26  24  92 CALM      30.52S VSB 1/2
HILL AFB       NOT AVBL
LOGAN          CLOUDY    11  11 100 CALM      30.51R FOG
OGDEN          FOG       27  26  96 VRB3      30.48F VSB 1
PROVO AIRPORT  FOG       19  18  93 CALM      30.49S VSB 1/8
SALT LAKE CITY FOG       30  28  92 W3        30.50R VSB 1/2
VERNAL         CLOUDY    18  12  77 CALM      30.48F
WENDOVER       CLOUDY    28  27  93 E3        30.50R
HEBER CITY     MOSUNNY   21  21 100 CALM      30.44F FOG
WEST JORDAN    PTSUNNY   27  27 100 CALM      30.49R

$$

UTZ012>022-026-027-101900-

SOUTHERN/CENTRAL UTAH

CITY           SKY/WX    TMP DP  RH WIND       PRES   REMARKS
BLANDING       SUNNY     37  23  56 S3        30.54F
BRYCE CANYON   SUNNY     25  14  63 SW5       30.49F WCI  19
CEDAR CITY     PTSUNNY   30  23  75 CALM      30.43R
DELTA          CLOUDY    14  12  93 SW3       30.50R
HANKSVILLE     SUNNY     32  28  86 CALM      30.53S
MILFORD        FOG       14  11  87 S5        30.47S VSB 1/4 WCI   6
MOAB/CYNLANDS  SUNNY     31  27  85 NW6       30.48S WCI  25
PRICE          SUNNY     34  22  61 CALM      30.46S
ST GEORGE      PTCLDY    46  27  46 SW3       30.44F
KANAB          SUNNY     54  27  35 CALM      30.47F

$$

REGIONAL REPORTS     COLORADO/ARIZONA

CITY           SKY/WX    TMP DP  RH WIND       PRES   REMARKS
CRAIG, CO      CLOUDY    16  12  84 CALM      30.42F
GRAND JUNCTION SUNNY     34  22  61 CALM      30.47F
RIFLE          SUNNY     28  17  63 CALM      30.48F
MONTROSE       SUNNY     38  19  46 NW5       30.48F WCI  34
CORTEZ         SUNNY     41  19  41 CALM      30.47F
PAGE, AZ       SUNNY     44  29  55 N5        30.48S
GRAND CANYON   SUNNY     59   9  13 S3        30.47S
KINGMAN        SUNNY     59  22  24 N6        30.35S
FLAGSTAFF      SUNNY     53  10  18 E5        30.48S

$$

REGIONAL REPORTS    NEVADA/IDAHO/WYOMING

CITY           SKY/WX    TMP DP  RH WIND       PRES   REMARKS
LAS VEGAS, NV  MOSUNNY   61  26  26 N3        30.31S
ELY            MOSUNNY   27  14  58 S14       30.45R WCI  16
ELKO           PTSUNNY   14   9  80 E6        30.51S WCI   5
POCATELLO, ID  CLOUDY    26  22  84 CALM      30.45R
BURLEY         MOSUNNY   33  28  81 CALM      30.41R
EVANSTON, WY   CLOUDY    28  15  58 S7        30.40R WCI  21
ROCK SPRINGS   CLOUDY    36  19  50 W14       30.34F WCI  27
KEMMERER       CLOUDY    37  18  44 W3        30.38S

$$



USA.gov is the U.S. government's official web portal to all federal, state and local government web resources and services.